• MPC Preparation (Info)

  • MPEC 2014-Y82 : 2014 YQ34

    The following Minor Planet Electronic Circular may be linked-to from your own Web pages, but must not otherwise be redistributed electronically.

    A form allowing access to any MPEC is at the bottom of this page.


    Read MPEC 2014-Y81 Read MPEC 2014-Y83


    M.P.E.C. 2014-Y82                                Issued 2014 Dec. 29, 21:37 UT
    
         The Minor Planet Electronic Circulars contain information on unusual
             minor planets and routine data on comets.  They are published
       on behalf of Commission 20 of the International Astronomical Union by the
              Minor Planet Center, Smithsonian Astrophysical Observatory,
                              Cambridge, MA 02138, U.S.A.
    
                 Prepared using the Tamkin Foundation Computer Network
    
                                  MPC@CFA.HARVARD.EDU
                URL https://www.minorplanetcenter.net/    ISSN 1523-6714
    
                                       2014 YQ34
    
    Observations:
         K14Y34Q* C2014 12 28.15886 04 17 44.97 +21 02 36.1          20.7 VqEY082G96
         K14Y34Q  C2014 12 28.16519 04 17 37.68 +21 02 09.4          20.4 VqEY082G96
         K14Y34Q  C2014 12 28.17152 04 17 30.54 +21 01 42.7          20.3 VqEY082G96
         K14Y34Q  C2014 12 28.17788 04 17 23.15 +21 01 15.6          20.1 VqEY082G96
         K14Y34Q  C2014 12 28.20747 04 16 49.11 +20 59 09.7          20.7 VqEY082G96
         K14Y34Q  C2014 12 28.20797 04 16 48.58 +20 59 07.4          20.6 VqEY082G96
         K14Y34Q  C2014 12 28.20847 04 16 48.04 +20 59 05.9          20.6 VqEY082G96
         K14Y34Q  C2014 12 28.20897 04 16 47.44 +20 59 03.6          20.6 VqEY082G96
         K14Y34Q KC2014 12 28.22621904 16 27.29 +20 57 46.7          20.6 RtEY082H01
         K14Y34Q  C2014 12 28.24139004 16 09.71 +20 56 40.7          21.3 RtEY082H01
         K14Y34Q KC2014 12 28.24900304 16 00.90 +20 56 07.5          20.8 RtEY082H01
         K14Y34Q KC2014 12 28.25709904 15 51.50 +20 55 32.1          20.9 RtEY082H01
         K14Y34Q KC2014 12 28.29472 04 15 08.02 +20 52 48.1          20.2 RoEY082291
         K14Y34Q KC2014 12 28.29584 04 15 06.66 +20 52 43.2          21.3 RoEY082291
         K14Y34Q KC2014 12 28.29694 04 15 05.34 +20 52 38.6          20.8 RoEY082291
         K14Y34Q KC2014 12 28.85274 04 04 05.16 +20 07 57.6                qEY082J95
         K14Y34Q KC2014 12 28.86440 04 03 50.34 +20 06 56.8          20.4 RqEY082J95
         K14Y34Q KC2014 12 28.87672 04 03 34.69 +20 05 53.9                qEY082J95
         K14Y34Q KC2014 12 28.88816 04 03 20.08 +20 04 54.9                qEY082J95
         K14Y34Q KC2014 12 28.89891 04 03 06.29 +20 03 58.0          20.5 RqEY082J95
         K14Y34Q KC2014 12 29.13189 03 58 09.87 +19 43 17.6          21.1 RoEY082291
         K14Y34Q KC2014 12 29.13349 03 58 07.74 +19 43 08.6          20.7 RoEY082291
         K14Y34Q KC2014 12 29.13511 03 58 05.59 +19 42 59.6          21.0 RoEY082291
         K14Y34Q  C2014 12 29.20047 03 56 37.88 +19 36 51.0          20.5 VqEY082G96
         K14Y34Q  C2014 12 29.20080 03 56 37.46 +19 36 49.6          20.6 VqEY082G96
         K14Y34Q  C2014 12 29.20112 03 56 37.04 +19 36 47.9          19.9 VqEY082G96
         K14Y34Q KC2014 12 29.85279 03 41 32.65 +18 28 12.9                qEY082J95
         K14Y34Q KC2014 12 29.86316 03 41 17.28 +18 27 02.2                qEY082J95
         K14Y34Q KC2014 12 29.87450 03 41 00.43 +18 25 44.5          20.2 RqEY082J95
    
    Observer details:
    291 LPL/Spacewatch II.  Observer A. F. Tubbiolo.  1.8-m f/2.7 reflector + CCD.
    G96 Mt. Lemmon Survey.  Observer A. D. Grauer.  Measurers E. J. Christensen,
        A. R. Gibbs, A. D. Grauer, R. E. Hill, J. A. Johnson, R. A. Kowalski,
        S. M. Larson, R. G. Matheny, F. C. Shelly.  1.5-m reflector + CCD.
    H01 Magdalena Ridge Observatory, Socorro.  Observer W. H. Ryan.  2.4-m f/8.9
        reflector + CCD.
    J95 Great Shefford.  Observer P. Birtwhistle.  0.40-m f/6.0 Schmidt-Cassegrain
        + CCD.
    
    Orbital elements:
    2014 YQ34                                                Earth MOID = 0.0063 AU
    Epoch 2014 Dec. 9.0 TT = JDT 2457000.5                  MPC
    M 342.62920              (2000.0)            P               Q
    n   0.25292559     Peri.  290.57081     -0.91954855     +0.38847338
    a   2.4763244      Node   272.32724     -0.33481400     -0.85350406
    e   0.8270488      Incl.    3.40361     -0.20574269     -0.34730284
    P   3.90           H   24.0           G   0.15           U   8
    Residuals in seconds of arc
    141228 G96  0.3+  0.2+    141228 H01  0.2+  0.0     141229 291  1.2-  0.1+
    141228 G96  0.5-  0.1+    141228 H01  0.1+  0.2+    141229 291  1.2-  0.1-
    141228 G96  0.9+  0.0     141228 291  0.2+  0.1+    141229 291  1.1-  0.1-
    141228 G96  0.5-  0.2-    141228 291  0.5-  0.2+    141229 G96  0.6-  0.3-
    141228 G96  0.8-  0.1-    141228 291  1.1-  0.5+    141229 G96  0.2-  0.2+
    141228 G96  0.2-  0.2-    141228 J95  0.6+  0.2-    141229 G96  0.0   0.3+
    141228 G96  0.3+  0.4+    141228 J95  0.4+  0.9-    141229 J95  0.3-  0.4-
    141228 G96  0.0   0.2+    141228 J95  0.8+  0.0     141229 J95  0.1+  0.1+
    141228 H01  0.5+  0.2-    141228 J95  0.5+  0.6+    141229 J95  0.4+  0.5+
    141228 H01  0.1+  0.1-    141228 J95  0.3-  0.1-
    
    Ephemeris:
    2014 YQ34                a,e,i = 2.48, 0.83, 3                   q = 0.4283
    Date    TT    R. A. (2000) Decl.     Delta      r     Elong.  Phase     V
    2014 11 29    06 31 31.9 +25 33 14   0.5662  1.5014   149.3    19.6    24.6
    ...
    2014 12 14    06 09 35.9 +25 23 21   0.3171  1.2973   169.3     8.1    22.6
    ...
    2014 12 22    05 31 35.1 +24 32 30   0.1995  1.1822   173.6     5.3    21.3
    ...
    2014 12 28    04 20 39.2 +21 13 53   0.1232  1.0928   151.0    25.9    20.8
    2014 12 29    04 00 59.1 +19 55 45   0.1125  1.0777   145.2    31.4    20.8
    2014 12 30    03 37 55.6 +18 11 54   0.1027  1.0625   138.5    37.8    20.7
    ...
    2015 01 05    00 15 58.3 -03 39 37   0.08183 0.9698    78.2    97.1    22.0
    ...
    2015 01 13    21 21 30.6 -20 35 54   0.1573  0.8430    24.6   151.0    28.2
    ...
    2015 01 28    20 03 39.2 -23 58 04   0.3893  0.6053    10.1   163.5    33.2
    
    A. U. Tomatic                (C) Copyright 2014 MPC           M.P.E.C. 2014-Y82
    

    Read MPEC 2014-Y81 Read MPEC 2014-Y83


    MPEC number:

    Enter an MPEC number in one of the following forms:

    • 1997-B01 (the full form)
    • J97B01 (the packed version of the full form)
    • B01 (the abbreviated form)